DECAYED
Showing default

CONNECTA T1.1, 52739 (Decayed)

Orbit data source: Space-Track

CONNECTA T1.1, 52739 was a payload satellite owned by Plan-S (TR) in LEO that was launched on Wed, 25 May 2022 UTC via an FALCON 9 launch vehicle from the Air Force Eastern Test Range (AFETR). Payload-class satellites include a variety of spacecraft equipped with specific instruments for various scientific and technological missions. These include communications satellites like Starlink; space stations such as the ISS; scientific satellites like the Hubble; Earth observation satellites from companies like Planet Labs, Umbra, and HawkEye 360; GPS; miniature CubeSats for education and research; and military/defense satellites.

Not visible in the next 10 days
Identifier
52739, 2022-057H
Orbit
Decayed
Country
Flag of TRTR / TURK
Related business
Manufacturer
Plan-S
Mission
Decayed Commercial Communications
Bus & Motor
CUBESAT 3U, Unknown motor
Mass
4 kg wet, 4 kg dry
Launch date (UTC)
2022-05-25 (4 years ago)
Launch vehicle
FALCON 9
Launch site
Air Force Eastern Test Range (AFETR)
Object type
Payload
Rocket body
Debris
Shape & HBR
Box, 1.0 m
Radar Cross Section
0.035 m², Medium (>0.1 m² and < 1m²)

Expand to show TLE details & history
Last TLE update: 5 months ago

TLE from 5 months ago
0 CONNECTA T1.1
1 52739U 22057H   26007.40205973  .04204649  25992-5  81801-3 0  9999
2 52739  97.5997 170.6259 0007262 300.5802  59.4776 16.31726765202342
Epoch: 2026-01-07T09:38Z
TLE epoch observation values (Epoch: 2026-01-07T09:38:57.960Z)
Latitude
0.00001°
Longitude
-81.08663°
Altitude
188.718 km
Speed
7.794 km/s
True Right ascension
11h 22m 30s
True Declination
0° 00' 00"
Sunlit
Object was in full shadow at epoch
Visualization orbit readout
Latitude
Unknown
Longitude
Unknown
Altitude
Unknown
Speed
Unknown
Apparent Right ascension
Unknown
Apparent Declination
Unknown
Sunlit
N/A
Visualization observer readout
Local Sidereal Time
21:56:17
Azimuth
Unknown
Elevation
Unknown
Doppler factor
Unknown
Orbital elements
Apogee altitude
189.497 km
Perigee altitude
179.965 km
Semi-major axis
6,562.868 km
Eccentricity
0.00073
Inclination
97.5997°
RAAN
170.6259°
Arg. of periapsis
300.5802°
True anomaly
59.54932°
Mean anomaly
59.4776°
Eccentric anomaly
59.51346°
Mean motion
4.08228 °/min
Orbital period
88.19 mins
BSTAR
0.00081801
Loading maneuver chart data...
Computing Atmospheric mass density...
Loading historical data...
Loading historical data...
Loading historical data...
Loading historical data...
Loading historical data...
Loading historical data...
Loading historical data...

Documentation

Showing up to 5 results
|